Content
SEND FEEDBACK

Daily
Averages
Monthly
Summary
United States of America

TAMUNING, GUAM


Home > North America > United States > Guam
Elevation: 250 feet     Latitude: 13 29N     Longitude: 144 47E

WEATHER
 
SELECT A DAY
Number of Records: 356,611;   Date Range: 1/1/95 - 12/19/14
 
SHARE

PRINT THIS DATA

[ ← Previous Day ]
WEATHER ALMANAC - JULY 22, 2013
[ Next Day → ]
[ °C ]   °F
Weather ElementAverageHighLow
Temperature81.3 °F86.5 °F (1:55 pm)77 °F (3:39 am)
Dewpoint77.1 °F82.2 °F (10:55 am)73.4 °F (4:17 am)
Humidity87.4 %100 % (3:29 am)74 % (8:19 am)
Barometer29.81 in29.93 in (10:55 pm)29.78 in (2:44 am)
Wind Speed9.6 mph15 mph (9:44 am)
Wind Gust21.9 mph (3:29 am)
Weather ElementAverage
Visibility9.9 mi
Wind DirectionESE (97.8 °)

Weather ElementTotal
Precipitation0.04 in
Cooling Degree Days16.8 (Base 65)
Growing Degree Days31.8 (Base 50)
Averaged from 78 records on July 22, 2013
WEATHER CONDITIONS BREAKOUT
WIND DIRECTION BREAKOUT
WEATHER BY HOUR - JULY 22, 2013
[ °C ]   °F
Local TimeTemperatureDewpointHumidityBarometerVisibilityWind DirectionWind SpeedGust SpeedPrecipitationEventsConditions
1:40 AM80.6 °F77.0 °F89 %29.80 in10.0 miENE (70°)9.2 mphMostly Cloudy
1:41 AM80.6 °F77.0 °F89 %29.80 in10.0 miEast (80°)10.4 mphMostly Cloudy
1:47 AM80.6 °F78.8 °F94 %29.80 in10.0 miENE (70°)10.4 mphMostly Cloudy
1:55 AM80.1 °F78.4 °F95 %29.80 in10.0 miEast (80°)8.1 mphMostly Cloudy
2:05 AM80.6 °F78.8 °F94 %29.79 in10.0 miENE (60°)9.2 mphScattered Clouds
2:11 AM80.6 °F78.8 °F94 %29.79 in10.0 miENE (60°)8.1 mphDrizzle
2:15 AM80.6 °F78.8 °F94 %29.79 in10.0 miENE (60°)9.2 mphRainLight Rain
2:21 AM80.6 °F78.8 °F94 %29.79 in10.0 miEast (80°)9.2 mphRainLight Rain
2:22 AM80.6 °F78.8 °F94 %29.79 in10.0 miEast (80°)9.2 mphMostly Cloudy
2:25 AM80.6 °F78.8 °F94 %29.79 in10.0 miEast (80°)9.2 mphMostly Cloudy
2:27 AM80.6 °F78.8 °F94 %29.79 in10.0 miEast (80°)8.1 mphMostly Cloudy
2:35 AM80.6 °F78.8 °F94 %29.79 in10.0 miENE (70°)8.1 mphMostly Cloudy
2:44 AM80.6 °F78.8 °F94 %29.78 in10.0 miEast (80°)8.1 mphMostly Cloudy
2:54 AM80.6 °F78.8 °F94 %29.79 in10.0 miENE (70°)11.5 mphMostly Cloudy
2:55 AM80.2 °F78.4 °F94 %29.79 in10.0 miENE (70°)12.7 mph0.00 inMostly Cloudy
2:56 AM80.6 °F78.8 °F94 %29.79 in10.0 miEast (80°)13.8 mphMostly Cloudy
2:59 AM80.6 °F78.8 °F94 %29.79 in10.0 miENE (70°)11.5 mphMostly Cloudy
3:04 AM80.6 °F78.8 °F94 %29.78 in10.0 miENE (70°)9.2 mphScattered Clouds
3:08 AM80.6 °F78.8 °F94 %29.78 in10.0 miEast (90°)10.4 mphRainLight Rain
3:09 AM80.6 °F78.8 °F94 %29.78 in10.0 miEast (90°)10.4 mphRainLight Rain
3:19 AM80.6 °F78.8 °F94 %29.79 in10.0 miEast (80°)11.5 mphMostly Cloudy
3:29 AM78.8 °F78.8 °F100 %29.79 in10.0 miESE (110°)12.7 mph21.9 mphMostly Cloudy
3:34 AM78.8 °F77.0 °F94 %29.79 in9.0 miESE (120°)13.8 mphMostly Cloudy
3:35 AM78.8 °F77.0 °F94 %29.79 in9.0 miSE (130°)13.8 mphRainLight Rain
3:39 AM77.0 °F77.0 °F100 %29.79 in9.0 miSE (140°)10.4 mphRainLight Rain
3:43 AM77.0 °F77.0 °F100 %29.79 in9.0 miSE (140°)9.2 mphRainLight Rain
3:45 AM77.0 °F77.0 °F100 %29.79 in10.0 miSE (140°)8.1 mphMostly Cloudy
3:55 AM77.5 °F75.6 °F94 %29.79 in10.0 miSE (130°)5.8 mph0.00 inMostly Cloudy
3:59 AM77.0 °F75.2 °F94 %29.79 in10.0 miSE (130°)5.8 mphScattered Clouds
4:17 AM78.8 °F73.4 °F83 %29.80 in10.0 miCalmMostly Cloudy
4:18 AM78.8 °F73.4 °F83 %29.79 in10.0 miCalmScattered Clouds
4:21 AM78.8 °F73.4 °F83 %29.80 in10.0 miCalmMostly Cloudy
4:25 AM78.8 °F73.4 °F83 %29.79 in10.0 miEast (90°)4.6 mphScattered Clouds
4:55 AM78.4 °F74.8 °F89 %29.78 in10.0 miESE (110°)4.6 mphClear
5:13 AM78.8 °F75.2 °F89 %29.79 in10.0 miESE (110°)5.8 mphRainLight Rain
5:27 AM78.8 °F73.4 °F83 %29.79 in4.0 miEast (90°)11.5 mphRainLight Rain
5:43 AM77.0 °F73.4 °F89 %29.80 in10.0 miSE (130°)8.1 mphLight Drizzle
5:55 AM77.4 °F74.7 °F91 %29.80 in10.0 miESE (120°)5.8 mph0.04 inRainLight Rain
6:01 AM77.0 °F73.4 °F89 %29.79 in10.0 miEast (100°)4.6 mphPartly Cloudy
6:52 AM80.6 °F75.2 °F84 %29.81 in10.0 miEast (90°)10.4 mphMostly Cloudy
6:55 AM81.1 °F77.5 °F89 %29.81 in10.0 miEast (100°)9.2 mph0.00 inMostly Cloudy
6:59 AM80.6 °F75.2 °F84 %29.82 in10.0 miESE (110°)11.5 mphMostly Cloudy
7:02 AM80.6 °F75.2 °F84 %29.82 in10.0 miESE (110°)10.4 mphMostly Cloudy
7:07 AM80.6 °F75.2 °F84 %29.82 in10.0 miESE (120°)10.4 mphMostly Cloudy
7:11 AM80.6 °F75.2 °F84 %29.82 in10.0 miESE (110°)11.5 mphMostly Cloudy
7:14 AM80.6 °F75.2 °F84 %29.82 in10.0 miESE (110°)10.4 mphMostly Cloudy
7:16 AM80.6 °F75.2 °F84 %29.82 in10.0 miESE (120°)9.2 mphMostly Cloudy
7:23 AM82.4 °F75.2 °F79 %29.82 in10.0 miESE (120°)11.5 mphScattered Clouds
7:41 AM82.4 °F75.2 °F79 %29.83 in10.0 miESE (120°)10.4 mphMostly Cloudy
7:44 AM82.4 °F75.2 °F79 %29.83 in10.0 miESE (110°)10.4 mphScattered Clouds
7:55 AM82.4 °F79.0 °F89 %29.83 in10.0 miEast (100°)9.2 mphScattered Clouds
8:19 AM84.2 °F75.2 °F74 %29.83 in10.0 miEast (100°)8.1 mphMostly Cloudy
8:22 AM84.2 °F75.2 °F74 %29.83 in10.0 miEast (100°)10.4 mphScattered Clouds
8:32 AM84.2 °F75.2 °F74 %29.83 in10.0 miESE (120°)12.7 mphMostly Cloudy
8:39 AM84.2 °F75.2 °F74 %29.83 in10.0 miESE (120°)12.7 mphScattered Clouds
8:55 AM83.5 °F80.1 °F89 %29.84 in10.0 miEast (100°)10.4 mphScattered Clouds
9:20 AM84.2 °F77.0 °F79 %29.84 in10.0 miESE (120°)10.4 mphMostly Cloudy
9:34 AM82.4 °F77.0 °F84 %29.85 in10.0 miSE (130°)12.7 mphLight Drizzle
9:43 AM84.2 °F77.0 °F79 %29.84 in10.0 miSE (130°)12.7 mphRainLight Rain
9:44 AM84.2 °F77.0 °F79 %29.84 in10.0 miSE (140°)15.0 mphMostly Cloudy
9:55 AM84.9 °F81.0 °F88 %29.85 in10.0 miESE (120°)12.7 mph0.00 inPartly Cloudy
10:55 AM85.8 °F82.2 °F89 %29.84 in10.0 miESE (120°)11.5 mphScattered Clouds
11:55 AM85.8 °F81.1 °F86 %29.83 in10.0 miSE (140°)13.8 mphScattered Clouds
12:11 PM86.0 °F77.0 °F74 %29.83 in10.0 miESE (120°)11.5 mphMostly Cloudy
12:25 PM86.0 °F77.0 °F74 %29.82 in10.0 miESE (120°)10.4 mphMostly Cloudy
12:55 PM86.4 °F81.7 °F86 %29.82 in10.0 miEast (100°)10.4 mphScattered Clouds
1:03 PM86.0 °F77.0 °F74 %29.82 in10.0 miESE (110°)10.4 mphMostly Cloudy
1:49 PM86.0 °F77.0 °F74 %29.81 in10.0 miESE (110°)9.2 mphScattered Clouds
1:55 PM86.5 °F82.0 °F86 %29.81 in10.0 miSE (130°)11.5 mphScattered Clouds
2:55 PM86.4 °F81.3 °F85 %29.80 in10.0 miSE (140°)12.7 mphScattered Clouds
3:55 PM85.8 °F80.6 °F84 %29.83 in10.0 miESE (120°)11.5 mphPartly Cloudy
5:55 PM82.4 °F75.2 °F79 %29.86 in10.0 miESE (110°)10.4 mphPartly Cloudy
6:55 PM82.4 °F75.2 °F79 %29.88 in10.0 miESE (120°)8.1 mphPartly Cloudy
7:55 PM82.4 °F75.2 °F79 %29.90 in10.0 miESE (110°)6.9 mphPartly Cloudy
10:55 PM80.6 °F75.2 °F84 %29.93 in10.0 miEast (90°)5.8 mphClear
11:54 PM80.6 °F78.8 °F94 %29.88 in10.0 miNE (50°)9.2 mphMostly Cloudy
11:55 PM79.7 °F78.8 °F97 %29.88 in10.0 miNE (40°)10.4 mphMostly Cloudy
11:56 PM80.6 °F78.8 °F94 %29.88 in9.0 miNE (40°)10.4 mphRainLight Rain
Hourly data recorded from PGUA, located miles away from Tamuning, Guam







STORIES FROM OUR PARTNERS